,,,PA_Meas_PMT16A,,PR_Meas_QMR101_102,,RH_Meas_QMH101,,SR_Meas_QMS101,,TA_Meas_QMH101,,GenWind,,GenWind,
date,time,status,PA,status,PR,status,RH,status,SR,status,TA,status,DirAvg,status,SpdAvg,
2009-06-08, 00:00:04,VALID,1005.84,VALID,0,VALID,90.3183,VALID,0,VALID,24.4238,VALID,78,VALID,0.269922,
2009-06-08, 00:01:04,VALID,1005.81,VALID,0,VALID,90.3946,VALID,0,VALID,24.383,VALID,78,VALID,0.0867188,
2009-06-08, 00:02:04,VALID,1005.8,VALID,0,VALID,90.5167,VALID,0,VALID,24.3654,VALID,77,VALID,0.35,
2009-06-08, 00:03:04,VALID,1005.79,VALID,0,VALID,90.6921,VALID,0,VALID,24.3654,VALID,77,VALID,0.308984,
2009-06-08, 00:04:04,VALID,1005.76,VALID,0,VALID,90.8905,VALID,0,VALID,24.3459,VALID,77,VALID,0.389062,
2009-06-08, 00:05:04,VALID,1005.79,VALID,0,VALID,91.0354,VALID,0,VALID,24.2857,VALID,77,VALID,0.340625,
2009-06-08, 00:06:04,VALID,1005.77,VALID,0,VALID,91.1956,VALID,0,VALID,24.2875,VALID,77,VALID,0.108984,
2009-06-08, 00:07:04,VALID,1005.75,VALID,0,VALID,91.3253,VALID,0,VALID,24.2662,VALID,77,VALID,0,
2009-06-08, 00:08:04,VALID,1005.75,VALID,0,VALID,91.455,VALID,0,VALID,24.2681,VALID,35,VALID,0.647266,
2009-06-08, 00:09:04,VALID,1005.78,VALID,0,VALID,91.5084,VALID,0,VALID,24.2486,VALID,14,VALID,0.534375,
2009-06-08, 00:10:04,VALID,1005.8,VALID,0,VALID,91.6,VALID,0,VALID,24.2486,VALID,355,VALID,0.383984,
2009-06-08, 00:11:04,VALID,1005.83,VALID,0,VALID,91.6229,VALID,0,VALID,24.2681,VALID,355,VALID,0.534766,
2009-06-08, 00:12:04,VALID,1005.85,VALID,0,VALID,91.661,VALID,0,VALID,24.2875,VALID,350,VALID,0.75,
2009-06-08, 00:13:04,VALID,1005.85,VALID,0,VALID,91.8136,VALID,0,VALID,24.3459,VALID,344,VALID,0.567969,
2009-06-08, 00:14:04,VALID,1005.84,VALID,0,VALID,91.5695,VALID,0,VALID,24.3849,VALID,349,VALID,0.790625,
2009-06-08, 00:15:04,VALID,1005.85,VALID,0,VALID,91.5771,VALID,0,VALID,24.4238,VALID,349,VALID,0.0550781,
2009-06-08, 00:16:04,VALID,1005.83,VALID,0,VALID,91.6305,VALID,0,VALID,24.4822,VALID,357,VALID,0.591016,
2009-06-08, 00:17:04,VALID,1005.8,VALID,0,VALID,91.333,VALID,0,VALID,24.4804,VALID,354,VALID,0.666016,
2009-06-08, 00:18:04,VALID,1005.79,VALID,0,VALID,90.7989,VALID,0,VALID,24.4822,VALID,339,VALID,0.897266,
2009-06-08, 00:19:04,VALID,1005.75,VALID,0,VALID,90.5243,VALID,0,VALID,24.4998,VALID,4,VALID,0.554297,
2009-06-08, 00:20:04,VALID,1005.76,VALID,0,VALID,90.2497,VALID,0,VALID,24.5406,VALID,350,VALID,0.844531,
2009-06-08, 00:21:04,VALID,1005.77,VALID,0,VALID,90.1352,VALID,0,VALID,24.5601,VALID,339,VALID,0.599609,
2009-06-08, 00:22:04,VALID,1005.77,VALID,0,VALID,90.0818,VALID,0,VALID,24.6009,VALID,350,VALID,0.817578,
2009-06-08, 00:23:04,VALID,1005.79,VALID,0,VALID,90.0208,VALID,0,VALID,24.5796,VALID,355,VALID,0.742578,
2009-06-08, 00:24:04,VALID,1005.83,VALID,0,VALID,90.0208,VALID,0,VALID,24.5796,VALID,358,VALID,1.03437,
2009-06-08, 00:25:04,VALID,1005.84,VALID,0,VALID,90.0818,VALID,0,VALID,24.5796,VALID,349,VALID,1.25859,
2009-06-08, 00:26:04,VALID,1005.85,VALID,0,VALID,90.0894,VALID,0,VALID,24.5796,VALID,360,VALID,0.654297,
2009-06-08, 00:27:04,VALID,1005.81,VALID,0,VALID,90.0513,VALID,0,VALID,24.5972,VALID,351,VALID,0.781641,
2009-06-08, 00:28:04,VALID,1005.81,VALID,0,VALID,89.914,VALID,0,VALID,24.6574,VALID,347,VALID,0.596875,
2009-06-08, 00:29:04,VALID,1005.75,VALID,0,VALID,89.8072,VALID,0,VALID,24.675,VALID,36,VALID,1.2832,
2009-06-08, 00:30:04,VALID,1005.81,VALID,0,VALID,89.708,VALID,0,VALID,24.6945,VALID,358,VALID,0.734766,
2009-06-08, 00:31:04,VALID,1005.77,VALID,0,VALID,89.6927,VALID,0,VALID,24.714,VALID,4,VALID,1.19336,
2009-06-08, 00:32:04,VALID,1005.74,VALID,0,VALID,89.6775,VALID,0,VALID,24.7529,VALID,357,VALID,1.59102,
2009-06-08, 00:33:04,VALID,1005.72,VALID,0,VALID,89.6241,VALID,0,VALID,24.7724,VALID,2,VALID,1.10938,
2009-06-08, 00:34:04,VALID,1005.69,VALID,0,VALID,89.5859,VALID,0,VALID,24.7919,VALID,355,VALID,0.938281,
2009-06-08, 00:35:04,VALID,1005.62,VALID,0,VALID,89.4868,VALID,0,VALID,24.8113,VALID,359,VALID,1.68633,
2009-06-08, 00:36:04,VALID,1005.54,VALID,0,VALID,89.3876,VALID,0,VALID,24.8503,VALID,360,VALID,1.37891,
2009-06-08, 00:37:04,VALID,1005.51,VALID,0,VALID,89.3266,VALID,0,VALID,24.8911,VALID,24,VALID,1.4625,
2009-06-08, 00:38:04,VALID,1005.45,VALID,0,VALID,89.2732,VALID,0,VALID,24.8892,VALID,5,VALID,1.35469,
2009-06-08, 00:39:04,VALID,1005.4,VALID,0,VALID,89.174,VALID,0,VALID,24.9087,VALID,26,VALID,0.854297,
2009-06-08, 00:40:04,VALID,1005.38,VALID,0,VALID,89.113,VALID,0,VALID,24.9476,VALID,34,VALID,0.373047,
2009-06-08, 00:41:04,VALID,1005.38,VALID,0,VALID,89.0748,VALID,0,VALID,24.9476,VALID,52,VALID,0.422656,
2009-06-08, 00:42:04,VALID,1005.37,VALID,0,VALID,89.029,VALID,0,VALID,24.9885,VALID,30,VALID,0.809766,
2009-06-08, 00:43:05,VALID,1005.38,VALID,0,VALID,88.9375,VALID,0,VALID,24.9866,VALID,15,VALID,0.573047,
2009-06-08, 00:44:05,VALID,1005.32,VALID,0,VALID,88.8002,VALID,0,VALID,25.006,VALID,347,VALID,1.39336,
2009-06-08, 00:45:05,VALID,1005.29,VALID,0,VALID,88.5637,VALID,0,VALID,25.0644,VALID,360,VALID,0.824219,
2009-06-08, 00:46:05,VALID,1005.28,VALID,0,VALID,88.289,VALID,0,VALID,25.1034,VALID,58,VALID,0.34375,
2009-06-08, 00:47:05,VALID,1005.24,VALID,0,VALID,88.022,VALID,0,VALID,25.1618,VALID,51,VALID,0.672266,
2009-06-08, 00:48:05,VALID,1005.22,VALID,0,VALID,87.8389,VALID,0.100563,VALID,25.1813,VALID,53,VALID,0.333984,
2009-06-08, 00:49:05,VALID,1005.17,VALID,0,VALID,87.6406,VALID,0,VALID,25.2007,VALID,4,VALID,0.526563,
2009-06-08, 00:50:05,VALID,1005.18,VALID,0,VALID,87.5643,VALID,0,VALID,25.2202,VALID,5,VALID,0.178906,
2009-06-08, 00:51:05,VALID,1005.17,VALID,0,VALID,87.5719,VALID,0,VALID,25.2202,VALID,5,VALID,0,
2009-06-08, 00:52:05,VALID,1005.16,VALID,0,VALID,87.7092,VALID,0,VALID,25.2007,VALID,6,VALID,0.274609,
2009-06-08, 00:53:05,VALID,1005.19,VALID,0,VALID,87.8084,VALID,0,VALID,25.1813,VALID,3,VALID,0.156641,
2009-06-08, 00:54:05,VALID,1005.16,VALID,0,VALID,87.7321,VALID,0,VALID,25.1618,VALID,352,VALID,1.14883,
2009-06-08, 00:55:05,VALID,1005.13,VALID,0,VALID,87.8847,VALID,0,VALID,25.1637,VALID,39,VALID,0.737109,
2009-06-08, 00:56:05,VALID,1005.13,VALID,0,VALID,87.8847,VALID,0,VALID,25.1034,VALID,18,VALID,1.07813,
2009-06-08, 00:57:05,VALID,1005.09,VALID,0,VALID,87.9457,VALID,0,VALID,25.0839,VALID,16,VALID,0.908594,
2009-06-08, 00:58:05,VALID,1005.1,VALID,0,VALID,87.9915,VALID,0,VALID,25.0644,VALID,347,VALID,0.230078,
2009-06-08, 00:59:05,VALID,1005.07,VALID,0,VALID,88.0373,VALID,0,VALID,25.1053,VALID,33,VALID,0.400391,
2009-06-08, 01:00:05,VALID,1005.09,VALID,0,VALID,87.9228,VALID,0,VALID,25.0644,VALID,21,VALID,1.66562,
2009-06-08, 01:01:05,VALID,1005.07,VALID,0,VALID,87.9686,VALID,0,VALID,25.0839,VALID,19,VALID,1.42695,
2009-06-08, 01:02:05,VALID,1005.07,VALID,0,VALID,87.8466,VALID,0,VALID,25.1248,VALID,33,VALID,1.08203,
2009-06-08, 01:03:05,VALID,1005.1,VALID,0,VALID,87.8237,VALID,0,VALID,25.1034,VALID,16,VALID,1.5168,
2009-06-08, 01:04:05,VALID,1005.08,VALID,0,VALID,87.8618,VALID,0,VALID,25.1034,VALID,17,VALID,0.234375,
2009-06-08, 01:05:05,VALID,1005.08,VALID,0,VALID,87.8389,VALID,0,VALID,25.1229,VALID,22,VALID,1.55313,
2009-06-08, 01:06:05,VALID,1005.06,VALID,0,VALID,87.7932,VALID,0,VALID,25.1229,VALID,21,VALID,1.08008,
2009-06-08, 01:07:05,VALID,1005.06,VALID,0,VALID,87.7321,VALID,0,VALID,25.1423,VALID,16,VALID,0.530859,
2009-06-08, 01:08:05,VALID,1005.07,VALID,0,VALID,87.6406,VALID,0,VALID,25.1618,VALID,28,VALID,1.08047,
2009-06-08, 01:09:05,VALID,1005.04,VALID,0,VALID,87.5948,VALID,0,VALID,25.1813,VALID,15,VALID,1.32227,
2009-06-08, 01:10:05,VALID,1005.01,VALID,0,VALID,87.5948,VALID,0,VALID,25.2221,VALID,25,VALID,0.583203,
2009-06-08, 01:11:05,VALID,1004.99,VALID,0,VALID,87.5185,VALID,0,VALID,25.2416,VALID,32,VALID,0.205469,
2009-06-08, 01:12:05,VALID,1005,VALID,0,VALID,87.4804,VALID,0,VALID,25.2202,VALID,42,VALID,0.258984,
2009-06-08, 01:13:05,VALID,1005.02,VALID,0,VALID,87.6101,VALID,0,VALID,25.2416,VALID,338,VALID,0.313281,
2009-06-08, 01:14:05,VALID,1005.02,VALID,0,VALID,87.6329,VALID,0,VALID,25.2202,VALID,38,VALID,0.275391,
2009-06-08, 01:15:05,VALID,1005.07,VALID,0,VALID,87.5795,VALID,0,VALID,25.2806,VALID,25,VALID,0.849219,
2009-06-08, 01:16:05,VALID,1005.08,VALID,0,VALID,87.4346,VALID,0,VALID,25.3,VALID,62,VALID,0.526172,
2009-06-08, 01:17:05,VALID,1005.11,VALID,0,VALID,87.3354,VALID,0,VALID,25.2981,VALID,88,VALID,0.44375,
2009-06-08, 01:18:05,VALID,1005.14,VALID,0,VALID,87.221,VALID,0,VALID,25.3176,VALID,88,VALID,0,
2009-06-08, 01:19:05,VALID,1005.17,VALID,0,VALID,87.3049,VALID,0,VALID,25.2981,VALID,89,VALID,0.220313,
2009-06-08, 01:20:05,VALID,1005.17,VALID,0,VALID,87.3659,VALID,0,VALID,25.3195,VALID,78,VALID,0.308594,
2009-06-08, 01:21:05,VALID,1005.17,VALID,0,VALID,87.4804,VALID,0,VALID,25.2786,VALID,77,VALID,0.0488281,
2009-06-08, 01:22:05,VALID,1005.17,VALID,0,VALID,87.6101,VALID,0,VALID,25.2611,VALID,195,VALID,0.301562,
2009-06-08, 01:23:05,VALID,1005.17,VALID,0,VALID,87.694,VALID,0,VALID,25.2611,VALID,326,VALID,0.689453,
2009-06-08, 01:24:05,VALID,1005.18,VALID,0,VALID,87.7626,VALID,0,VALID,25.2202,VALID,272,VALID,0.445313,
2009-06-08, 01:25:05,VALID,1005.2,VALID,0,VALID,87.694,VALID,0,VALID,25.2202,VALID,271,VALID,0.0210938,
2009-06-08, 01:26:05,VALID,1005.2,VALID,0,VALID,87.694,VALID,0,VALID,25.1618,VALID,122,VALID,0.752734,
2009-06-08, 01:27:05,VALID,1005.17,VALID,0,VALID,88.0373,VALID,0.100563,VALID,25.0839,VALID,138,VALID,1.06172,
2009-06-08, 01:28:05,VALID,1005.19,VALID,0,VALID,88.4492,VALID,0,VALID,25.006,VALID,144,VALID,0.922266,
2009-06-08, 01:29:05,VALID,1005.19,VALID,0,VALID,88.7697,VALID,0,VALID,24.9087,VALID,146,VALID,0.451562,
2009-06-08, 01:30:05,VALID,1005.18,VALID,0,VALID,89.0824,VALID,0,VALID,24.8522,VALID,140,VALID,0.661719,
2009-06-08, 01:31:05,VALID,1005.16,VALID,0,VALID,89.4563,VALID,0,VALID,24.7724,VALID,146,VALID,0.470703,
2009-06-08, 01:32:05,VALID,1005.18,VALID,0,VALID,89.6927,VALID,0,VALID,24.7548,VALID,197,VALID,0.626953,
2009-06-08, 01:33:05,VALID,1005.21,VALID,0,VALID,89.9598,VALID,0,VALID,24.714,VALID,199,VALID,0.277344,
2009-06-08, 01:34:05,VALID,1005.25,VALID,0,VALID,90.1123,VALID,0,VALID,24.7159,VALID,199,VALID,0.046875,
2009-06-08, 01:35:05,VALID,1005.22,VALID,0,VALID,90.2344,VALID,0,VALID,24.6556,VALID,199,VALID,0,
2009-06-08, 01:36:05,VALID,1005.26,VALID,0,VALID,90.2725,VALID,0,VALID,24.6574,VALID,199,VALID,0.157031,
2009-06-08, 01:37:05,VALID,1005.24,VALID,0,VALID,90.3717,VALID,0,VALID,24.6166,VALID,199,VALID,0.03125,
2009-06-08, 01:38:05,VALID,1005.22,VALID,0,VALID,90.5472,VALID,0,VALID,24.5972,VALID,199,VALID,0.0253906,
2009-06-08, 01:39:05,VALID,1005.25,VALID,0,VALID,90.6464,VALID,0,VALID,24.5777,VALID,199,VALID,0,
2009-06-08, 01:40:05,VALID,1005.26,VALID,0,VALID,90.6921,VALID,0.100563,VALID,24.5582,VALID,199,VALID,0,
2009-06-08, 01:41:05,VALID,1005.24,VALID,0,VALID,90.8829,VALID,0,VALID,24.5601,VALID,199,VALID,0.0183594,
2009-06-08, 01:42:05,VALID,1005.21,VALID,0,VALID,90.9668,VALID,0.100563,VALID,24.5193,VALID,199,VALID,0.224609,
2009-06-08, 01:43:05,VALID,1005.17,VALID,0,VALID,91.1193,VALID,0.100563,VALID,24.4998,VALID,199,VALID,0.320313,
2009-06-08, 01:44:05,VALID,1005.17,VALID,0,VALID,91.1956,VALID,0.100563,VALID,24.4822,VALID,199,VALID,0.157031,
2009-06-08, 01:45:05,VALID,1005.13,VALID,0,VALID,91.3101,VALID,0,VALID,24.4609,VALID,199,VALID,0.102344,
2009-06-08, 01:46:05,VALID,1005.1,VALID,0,VALID,91.3864,VALID,0,VALID,24.4628,VALID,199,VALID,0,
2009-06-08, 01:47:05,VALID,1005.08,VALID,0,VALID,91.5389,VALID,0,VALID,24.4609,VALID,199,VALID,0.323828,
2009-06-08, 01:48:05,VALID,1005.04,VALID,0,VALID,91.6229,VALID,0,VALID,24.4414,VALID,199,VALID,0.5125,
2009-06-08, 01:49:05,VALID,1005.06,VALID,0,VALID,91.7525,VALID,0,VALID,24.422,VALID,199,VALID,0.53125,
2009-06-08, 01:50:05,VALID,1005.03,VALID,0,VALID,91.8288,VALID,0,VALID,24.4025,VALID,352,VALID,0.587109,
2009-06-08, 01:51:05,VALID,1005.02,VALID,0,VALID,91.9128,VALID,0,VALID,24.3636,VALID,352,VALID,0.495313,
2009-06-08, 01:52:05,VALID,1004.97,VALID,0,VALID,91.9967,VALID,0,VALID,24.3459,VALID,352,VALID,0.151562,
2009-06-08, 01:53:05,VALID,1004.95,VALID,0,VALID,92.1035,VALID,0,VALID,24.3265,VALID,352,VALID,0.367578,
2009-06-08, 01:54:05,VALID,1004.93,VALID,0,VALID,92.2027,VALID,0,VALID,24.2857,VALID,352,VALID,0.303906,
2009-06-08, 01:55:05,VALID,1004.94,VALID,0,VALID,92.34,VALID,0,VALID,24.307,VALID,352,VALID,0.478125,
2009-06-08, 01:56:05,VALID,1004.9,VALID,0,VALID,92.3934,VALID,0,VALID,24.2857,VALID,352,VALID,0.289063,
2009-06-08, 01:57:05,VALID,1004.85,VALID,0,VALID,92.4773,VALID,0,VALID,24.2857,VALID,352,VALID,0.301953,
2009-06-08, 01:58:05,VALID,1004.86,VALID,0,VALID,92.4849,VALID,0,VALID,24.2662,VALID,352,VALID,0.262109,
2009-06-08, 01:59:05,VALID,1004.85,VALID,0,VALID,92.5002,VALID,0,VALID,24.2662,VALID,352,VALID,0.290234,
2009-06-08, 02:00:05,VALID,1004.81,VALID,0,VALID,92.5307,VALID,0,VALID,24.2662,VALID,352,VALID,0.129688,
2009-06-08, 02:01:05,VALID,1004.77,VALID,0,VALID,92.5612,VALID,0,VALID,24.2468,VALID,352,VALID,0,
2009-06-08, 02:02:05,VALID,1004.76,VALID,0,VALID,92.5841,VALID,0,VALID,24.2662,VALID,352,VALID,0.317578,
2009-06-08, 02:03:05,VALID,1004.76,VALID,0,VALID,92.6299,VALID,0,VALID,24.307,VALID,352,VALID,0.195313,
2009-06-08, 02:04:05,VALID,1004.74,VALID,0,VALID,92.668,VALID,0,VALID,24.3265,VALID,19,VALID,0.673828,
2009-06-08, 02:05:05,VALID,1004.69,VALID,0,VALID,92.6299,VALID,0,VALID,24.307,VALID,22,VALID,0.463281,
2009-06-08, 02:06:05,VALID,1004.69,VALID,0,VALID,92.6299,VALID,0,VALID,24.2875,VALID,22,VALID,0.285937,
2009-06-08, 02:07:05,VALID,1004.69,VALID,0,VALID,92.729,VALID,0.100563,VALID,24.2255,VALID,129,VALID,0.982813,
2009-06-08, 02:08:05,VALID,1004.69,VALID,0,VALID,92.7824,VALID,0,VALID,24.2486,VALID,101,VALID,0.575,
2009-06-08, 02:09:05,VALID,1004.69,VALID,0,VALID,92.8511,VALID,0,VALID,24.2078,VALID,100,VALID,0.198437,
2009-06-08, 02:10:05,VALID,1004.68,VALID,0,VALID,92.9045,VALID,0,VALID,24.1689,VALID,96,VALID,0.275391,
2009-06-08, 02:11:05,VALID,1004.67,VALID,0,VALID,92.9274,VALID,0,VALID,24.1689,VALID,96,VALID,0.317969,
2009-06-08, 02:12:05,VALID,1004.7,VALID,0,VALID,92.9884,VALID,0,VALID,24.1902,VALID,96,VALID,0.363672,
2009-06-08, 02:13:05,VALID,1004.7,VALID,0,VALID,93.0189,VALID,0,VALID,24.1689,VALID,94,VALID,0.176953,
2009-06-08, 02:14:05,VALID,1004.69,VALID,0,VALID,93.0037,VALID,0,VALID,24.1902,VALID,94,VALID,0,
2009-06-08, 02:15:05,VALID,1004.67,VALID,0,VALID,93.0113,VALID,0,VALID,24.1494,VALID,94,VALID,0.0714844,
2009-06-08, 02:16:05,VALID,1004.66,VALID,0,VALID,92.9655,VALID,0,VALID,24.1513,VALID,94,VALID,0.121094,
2009-06-08, 02:17:05,VALID,1004.68,VALID,0,VALID,92.935,VALID,0,VALID,24.13,VALID,94,VALID,0,
2009-06-08, 02:18:05,VALID,1004.68,VALID,0,VALID,93.0266,VALID,0,VALID,24.1494,VALID,94,VALID,0.368359,
2009-06-08, 02:19:05,VALID,1004.67,VALID,0,VALID,93.0266,VALID,0,VALID,24.1902,VALID,94,VALID,0.242188,
2009-06-08, 02:20:05,VALID,1004.66,VALID,0,VALID,92.9961,VALID,0,VALID,24.1707,VALID,94,VALID,0.175,
2009-06-08, 02:21:05,VALID,1004.66,VALID,0,VALID,92.9655,VALID,0,VALID,24.1689,VALID,94,VALID,0.0515625,
2009-06-08, 02:22:05,VALID,1004.63,VALID,0,VALID,92.813,VALID,0,VALID,24.1494,VALID,94,VALID,0.350391,
2009-06-08, 02:23:05,VALID,1004.61,VALID,0,VALID,92.7443,VALID,0.100563,VALID,24.1494,VALID,94,VALID,0.562109,
2009-06-08, 02:24:05,VALID,1004.62,VALID,0,VALID,92.5383,VALID,0,VALID,24.1494,VALID,79,VALID,0.683203,
2009-06-08, 02:25:05,VALID,1004.61,VALID,0,VALID,92.4239,VALID,0,VALID,24.1689,VALID,77,VALID,0.174219,
2009-06-08, 02:26:05,VALID,1004.64,VALID,0,VALID,92.2637,VALID,0,VALID,24.1884,VALID,76,VALID,0.340234,
2009-06-08, 02:27:05,VALID,1004.61,VALID,0,VALID,92.073,VALID,0,VALID,24.1884,VALID,71,VALID,0.615625,
2009-06-08, 02:28:05,VALID,1004.64,VALID,0,VALID,91.8746,VALID,0,VALID,24.2273,VALID,96,VALID,0.797266,
2009-06-08, 02:29:05,VALID,1004.68,VALID,0,VALID,91.3635,VALID,0,VALID,24.2273,VALID,117,VALID,0.944141,
2009-06-08, 02:30:05,VALID,1004.72,VALID,0,VALID,90.5853,VALID,0,VALID,24.3246,VALID,109,VALID,1.30039,
2009-06-08, 02:31:05,VALID,1004.77,VALID,0,VALID,89.6393,VALID,0.100563,VALID,24.4025,VALID,105,VALID,1.19219,
2009-06-08, 02:32:05,VALID,1004.77,VALID,0,VALID,89.1587,VALID,0.100563,VALID,24.4998,VALID,101,VALID,0.774219,
2009-06-08, 02:33:05,VALID,1004.8,VALID,0,VALID,88.4492,VALID,0,VALID,24.5582,VALID,99,VALID,1.0457,
2009-06-08, 02:34:05,VALID,1004.82,VALID,0,VALID,87.961,VALID,0.100563,VALID,24.6166,VALID,96,VALID,1.13086,
2009-06-08, 02:35:05,VALID,1004.82,VALID,0,VALID,86.7251,VALID,0,VALID,24.714,VALID,106,VALID,1.2043,
2009-06-08, 02:36:05,VALID,1004.79,VALID,0,VALID,86.0538,VALID,0.100563,VALID,24.8113,VALID,103,VALID,1.0707,
2009-06-08, 02:37:05,VALID,1004.77,VALID,0,VALID,85.4358,VALID,0,VALID,24.8697,VALID,89,VALID,0.841016,
2009-06-08, 02:38:05,VALID,1004.75,VALID,0,VALID,85.3672,VALID,0,VALID,24.9087,VALID,80,VALID,0.474219,
2009-06-08, 02:39:05,VALID,1004.67,VALID,0,VALID,85.3901,VALID,0,VALID,24.93,VALID,37,VALID,0.552344,
2009-06-08, 02:40:05,VALID,1004.62,VALID,0,VALID,85.6113,VALID,0,VALID,24.8892,VALID,20,VALID,0.84375,
2009-06-08, 02:41:05,VALID,1004.54,VALID,0,VALID,86.1682,VALID,0.100563,VALID,24.8697,VALID,24,VALID,0.551562,
2009-06-08, 02:42:05,VALID,1004.52,VALID,0,VALID,86.5115,VALID,0.100563,VALID,24.8503,VALID,24,VALID,0.311328,
2009-06-08, 02:43:05,VALID,1004.47,VALID,0,VALID,86.6946,VALID,0,VALID,24.8308,VALID,24,VALID,0.0953125,
2009-06-08, 02:44:05,VALID,1004.47,VALID,0,VALID,86.5954,VALID,0,VALID,24.7919,VALID,24,VALID,0,
2009-06-08, 02:45:05,VALID,1004.49,VALID,0,VALID,86.7709,VALID,0.100563,VALID,24.7724,VALID,24,VALID,0,
2009-06-08, 02:46:05,VALID,1004.53,VALID,0,VALID,86.9006,VALID,0.100563,VALID,24.7529,VALID,36,VALID,0.333594,
2009-06-08, 02:47:05,VALID,1004.55,VALID,0,VALID,87.2744,VALID,0.100563,VALID,24.6945,VALID,94,VALID,0.807813,
2009-06-08, 02:48:05,VALID,1004.58,VALID,0,VALID,87.4499,VALID,0.100563,VALID,24.6361,VALID,92,VALID,0.689453,
2009-06-08, 02:49:05,VALID,1004.64,VALID,0,VALID,87.7092,VALID,0.100563,VALID,24.5564,VALID,107,VALID,0.746094,
2009-06-08, 02:50:05,VALID,1004.67,VALID,0,VALID,88.1441,VALID,0.100563,VALID,24.5582,VALID,119,VALID,0.636328,
2009-06-08, 02:51:05,VALID,1004.68,VALID,0,VALID,88.3272,VALID,0.100563,VALID,24.5388,VALID,129,VALID,0.613281,
2009-06-08, 02:52:05,VALID,1004.7,VALID,0,VALID,88.3424,VALID,0.100563,VALID,24.5193,VALID,129,VALID,0.339453,
2009-06-08, 02:53:05,VALID,1004.73,VALID,0,VALID,88.4035,VALID,0,VALID,24.5193,VALID,129,VALID,0.21875,
2009-06-08, 02:54:05,VALID,1004.71,VALID,0,VALID,88.495,VALID,0,VALID,24.5193,VALID,129,VALID,0.357422,
2009-06-08, 02:55:05,VALID,1004.72,VALID,0,VALID,88.5789,VALID,0.100563,VALID,24.4804,VALID,55,VALID,0.636328,
2009-06-08, 02:56:05,VALID,1004.71,VALID,0,VALID,88.8459,VALID,0,VALID,24.4609,VALID,55,VALID,0.277344,
2009-06-08, 02:57:05,VALID,1004.71,VALID,0,VALID,89.235,VALID,0,VALID,24.4451,VALID,55,VALID,0,
2009-06-08, 02:58:05,VALID,1004.74,VALID,0,VALID,89.4181,VALID,0,VALID,24.383,VALID,55,VALID,0,
2009-06-08, 02:59:05,VALID,1004.8,VALID,0,VALID,89.4563,VALID,0,VALID,24.3849,VALID,55,VALID,0,
2009-06-08, 03:00:05,VALID,1004.81,VALID,0,VALID,89.4181,VALID,0,VALID,24.3654,VALID,55,VALID,0,
2009-06-08, 03:01:05,VALID,1004.78,VALID,0,VALID,89.5325,VALID,0,VALID,24.3459,VALID,55,VALID,0,
2009-06-08, 03:02:05,VALID,1004.8,VALID,0,VALID,89.6241,VALID,0,VALID,24.3265,VALID,55,VALID,0,
2009-06-08, 03:03:05,VALID,1004.83,VALID,0,VALID,89.8377,VALID,0,VALID,24.3265,VALID,55,VALID,0,
2009-06-08, 03:04:05,VALID,1004.84,VALID,0,VALID,89.8682,VALID,0,VALID,24.307,VALID,55,VALID,0.222656,
2009-06-08, 03:05:05,VALID,1004.81,VALID,0,VALID,89.9064,VALID,0,VALID,24.307,VALID,48,VALID,0.477344,
2009-06-08, 03:06:05,VALID,1004.79,VALID,0,VALID,90.0284,VALID,0,VALID,24.3265,VALID,16,VALID,0.668359,
2009-06-08, 03:07:05,VALID,1004.8,VALID,0,VALID,90.0589,VALID,0,VALID,24.307,VALID,15,VALID,0.650391,
2009-06-08, 03:08:05,VALID,1004.85,VALID,0,VALID,90.1963,VALID,0,VALID,24.307,VALID,3,VALID,0.852734,
2009-06-08, 03:09:05,VALID,1004.82,VALID,0,VALID,90.387,VALID,0,VALID,24.3283,VALID,3,VALID,0.434375,
2009-06-08, 03:10:05,VALID,1004.85,VALID,0,VALID,90.4709,VALID,0,VALID,24.2875,VALID,355,VALID,0.735156,
2009-06-08, 03:11:05,VALID,1004.85,VALID,0,VALID,90.5472,VALID,0,VALID,24.2875,VALID,348,VALID,0.523438,
2009-06-08, 03:12:05,VALID,1004.88,VALID,0,VALID,90.6311,VALID,0,VALID,24.2857,VALID,360,VALID,0.758594,
2009-06-08, 03:13:05,VALID,1004.9,VALID,0,VALID,90.6082,VALID,0,VALID,24.2857,VALID,5,VALID,0.228906,
2009-06-08, 03:14:05,VALID,1004.93,VALID,0,VALID,90.5396,VALID,0.100563,VALID,24.2857,VALID,359,VALID,0.971094,
2009-06-08, 03:15:05,VALID,1004.95,VALID,0,VALID,90.4633,VALID,0.100563,VALID,24.3052,VALID,351,VALID,0.660937,
2009-06-08, 03:16:05,VALID,1004.94,VALID,0,VALID,90.4175,VALID,0,VALID,24.3246,VALID,346,VALID,0.586328,
2009-06-08, 03:17:05,VALID,1004.94,VALID,0,VALID,90.4175,VALID,0.100563,VALID,24.3052,VALID,355,VALID,0.658203,
2009-06-08, 03:18:05,VALID,1004.93,VALID,0,VALID,90.4556,VALID,0.100563,VALID,24.3033,VALID,356,VALID,0.660547,
2009-06-08, 03:19:05,VALID,1004.97,VALID,0,VALID,90.4938,VALID,0.100563,VALID,24.3052,VALID,356,VALID,0.519141,
2009-06-08, 03:20:05,VALID,1004.95,VALID,0,VALID,90.5853,VALID,0,VALID,24.2839,VALID,356,VALID,0.451172,
2009-06-08, 03:21:05,VALID,1004.98,VALID,0,VALID,90.6769,VALID,0.100563,VALID,24.2644,VALID,356,VALID,0.397266,
2009-06-08, 03:22:05,VALID,1005.03,VALID,0,VALID,90.7455,VALID,0,VALID,24.2468,VALID,356,VALID,0.353125,
2009-06-08, 03:23:05,VALID,1005.01,VALID,0,VALID,90.8371,VALID,0,VALID,24.2273,VALID,356,VALID,0.0128906,
2009-06-08, 03:24:05,VALID,1005.07,VALID,0,VALID,90.9057,VALID,0,VALID,24.1865,VALID,356,VALID,0,
2009-06-08, 03:25:04,VALID,1005.07,VALID,0,VALID,91.0049,VALID,0.100563,VALID,24.1865,VALID,356,VALID,0.0632813,
2009-06-08, 03:26:04,VALID,1005.11,VALID,0,VALID,91.1117,VALID,0.100563,VALID,24.1476,VALID,356,VALID,0,
2009-06-08, 03:27:04,VALID,1005.07,VALID,0,VALID,91.2567,VALID,0,VALID,24.1494,VALID,356,VALID,0,
2009-06-08, 03:28:04,VALID,1005.09,VALID,0,VALID,91.3177,VALID,0,VALID,24.1318,VALID,356,VALID,0,
2009-06-08, 03:29:04,VALID,1005.07,VALID,0,VALID,91.3711,VALID,0,VALID,24.1318,VALID,356,VALID,0,
2009-06-08, 03:30:04,VALID,1005.1,VALID,0,VALID,91.4703,VALID,0,VALID,24.1142,VALID,356,VALID,0,
2009-06-08, 03:31:04,VALID,1005.13,VALID,0,VALID,91.5923,VALID,0,VALID,24.0734,VALID,356,VALID,0.184375,
2009-06-08, 03:32:04,VALID,1005.14,VALID,0,VALID,91.6839,VALID,0,VALID,24.0734,VALID,356,VALID,0.00585938,
2009-06-08, 03:33:04,VALID,1005.15,VALID,0,VALID,91.7983,VALID,0,VALID,24.0345,VALID,356,VALID,0,
2009-06-08, 03:34:04,VALID,1005.19,VALID,0,VALID,91.8975,VALID,0,VALID,24.0345,VALID,356,VALID,0,
2009-06-08, 03:35:04,VALID,1005.24,VALID,0,VALID,92.0119,VALID,0,VALID,24.015,VALID,356,VALID,0,
2009-06-08, 03:36:04,VALID,1005.26,VALID,0,VALID,92.1264,VALID,0,VALID,23.9761,VALID,356,VALID,0,
2009-06-08, 03:37:04,VALID,1005.28,VALID,0,VALID,92.2179,VALID,0,VALID,23.9566,VALID,356,VALID,0,
2009-06-08, 03:38:04,VALID,1005.31,VALID,0,VALID,92.3018,VALID,0,VALID,23.9566,VALID,356,VALID,0,
2009-06-08, 03:39:04,VALID,1005.34,VALID,0,VALID,92.3323,VALID,0,VALID,23.9371,VALID,356,VALID,0,
2009-06-08, 03:40:04,VALID,1005.38,VALID,0,VALID,92.4239,VALID,0,VALID,23.9371,VALID,356,VALID,0,
2009-06-08, 03:41:04,VALID,1005.35,VALID,0,VALID,92.5231,VALID,0,VALID,23.9159,VALID,356,VALID,0,
2009-06-08, 03:42:04,VALID,1005.4,VALID,0,VALID,92.6451,VALID,0.100563,VALID,23.9159,VALID,356,VALID,0,
2009-06-08, 03:43:04,VALID,1005.43,VALID,0,VALID,92.7748,VALID,0.100563,VALID,23.9353,VALID,356,VALID,0,
2009-06-08, 03:44:04,VALID,1005.42,VALID,0,VALID,92.8435,VALID,0,VALID,23.9548,VALID,356,VALID,0,
2009-06-08, 03:45:04,VALID,1005.43,VALID,0,VALID,92.8511,VALID,0.100563,VALID,23.9353,VALID,356,VALID,0,
2009-06-08, 03:46:04,VALID,1005.44,VALID,0,VALID,92.9121,VALID,0,VALID,23.9353,VALID,356,VALID,0,